Theta_e
302 304 305 307 311 312 311 312 312 312 313 314 314 315 314 314 316 315 320 331 321 314 316 321 322 322 322 320 315 322 315 319 317 309 306 306 306 309 308 311 307 307 306 304 305 299 298 320 318 308 314 319 315 314
302 303 305 306 310 311 311 311 311 312 313 313 313 314 314 314 314 315 316 328 326 316 317 319 321 329 327 326 321 322 322 326 329 322 317 316 308 312 309 304 312 305 310 307 309 306 314 321 318 324 324 322 324 323
302 303 304 305 309 310 310 311 311 312 312 313 312 313 314 313 313 314 319 323 319 312 311 311 312 323 328 329 335 322 328 329 331 333 324 320 313 315 308 308 308 312 316 312 311 315 320 320 324 322 318 318 326 325
301 303 304 305 309 310 310 310 311 311 312 313 313 313 313 313 314 313 317 324 320 318 309 308 320 319 329 331 332 332 328 333 332 331 322 319 315 320 313 313 310 314 314 312 313 315 318 315 320 320 318 319 329 325
301 303 304 305 310 310 310 310 310 311 312 312 313 313 313 313 312 313 320 323 322 316 310 313 323 326 328 328 327 328 327 325 320 317 317 315 320 319 316 315 311 315 315 312 311 315 318 315 319 321 323 326 324 321
301 303 304 307 310 310 309 309 310 311 312 312 312 313 313 312 310 318 315 320 315 319 312 311 320 323 325 327 324 324 324 324 321 316 315 318 325 318 311 307 315 318 318 317 315 316 315 322 326 325 325 323 323 326
302 303 305 310 309 309 309 310 310 311 312 311 311 311 312 311 313 317 310 313 311 321 315 311 313 321 323 324 322 321 323 320 317 314 315 315 317 321 313 307 315 318 318 317 318 321 318 321 321 326 325 327 327 329
302 303 308 309 309 309 309 310 310 311 311 311 310 311 312 310 308 312 316 310 312 320 318 311 313 315 323 315 313 319 315 316 318 315 316 314 316 318 309 316 319 317 318 319 317 318 318 323 324 323 326 326 327 327
302 305 309 309 309 309 309 310 311 311 311 310 310 311 313 312 316 320 314 312 319 321 312 312 307 307 319 315 315 314 316 309 315 312 312 313 309 307 314 316 315 318 319 322 323 323 324 318 320 322 324 327 325 325
304 309 309 309 309 309 309 310 310 311 310 310 310 311 310 317 313 316 315 316 316 318 316 309 314 310 315 312 311 314 315 308 304 309 313 309 307 315 320 320 321 321 322 320 316 316 319 319 319 318 321 327 326 326
308 308 309 309 309 309 309 309 310 309 308 311 311 313 318 310 316 313 310 308 310 307 310 310 311 310 319 312 309 313 309 309 302 305 307 306 305 316 319 319 319 320 320 320 321 322 320 319 317 317 320 328 327 326
308 308 309 309 309 309 309 309 310 308 315 311 310 319 317 313 311 307 304 307 307 303 309 305 307 311 318 320 313 312 308 308 301 311 305 302 313 317 319 319 319 320 321 322 324 323 323 323 321 321 324 326 325 324
308 308 308 308 308 308 308 307 308 308 310 320 315 311 309 308 297 299 297 301 302 308 311 312 309 315 315 315 312 309 304 301 309 303 302 310 318 319 319 320 319 321 323 324 323 324 327 327 322 319 321 326 324 321
308 308 307 307 307 308 308 308 309 311 311 311 305 292 299 300 302 303 303 305 309 312 311 311 311 308 311 309 308 307 306 306 300 299 304 312 316 319 322 323 321 319 320 321 323 323 325 319 317 318 319 325 322 317
306 306 306 306 307 307 307 309 310 314 315 309 306 294 299 305 306 309 311 313 314 315 311 309 312 310 307 307 307 305 302 299 300 300 311 318 321 324 324 325 323 323 320 318 320 323 324 322 321 318 324 322 320 318
306 306 304 306 306 307 308 309 313 318 311 309 308 304 304 305 306 309 311 310 314 313 313 312 309 306 304 304 303 301 299 297 303 312 317 320 320 321 323 326 324 324 324 322 323 326 327 325 323 322 322 320 318 318
307 304 305 307 308 308 308 313 314 309 307 306 304 310 308 307 306 308 312 311 315 311 307 308 304 302 306 302 302 304 302 309 313 315 317 322 320 321 322 323 325 323 323 323 322 323 326 326 324 322 319 319 318 317
304 305 306 307 309 311 312 313 310 306 301 305 304 307 311 311 310 310 312 312 311 310 310 307 310 305 301 300 301 309 313 315 315 314 313 314 320 323 323 322 324 325 323 324 324 324 326 325 322 321 321 319 317 316
306 307 307 307 309 309 306 307 310 303 303 306 307 308 310 311 313 314 311 312 314 315 312 309 306 302 304 312 310 311 312 312 312 313 317 323 322 322 324 325 324 324 324 324 325 325 325 325 323 321 320 318 314 314
304 304 305 307 310 306 303 303 311 306 301 303 306 304 306 306 310 310 311 311 311 309 305 304 304 309 309 314 316 315 312 313 314 311 313 313 315 314 318 323 322 316 315 315 315 310 316 318 318 320 319 318 316 315
305 304 305 308 305 304 303 302 303 304 304 302 304 303 304 308 307 307 308 311 306 305 304 307 307 314 317 317 318 319 317 317 315 315 312 309 310 311 313 320 323 318 317 315 314 314 313 315 316 318 317 316 316 317
302 305 305 304 298 299 300 304 302 304 302 303 303 304 304 302 303 304 308 305 304 305 307 310 313 315 314 315 315 316 316 316 317 313 307 308 310 310 310 314 316 314 314 312 314 314 316 315 316 316 318 318 314 317
303 305 301 299 294 292 292 304 299 301 297 299 302 299 301 302 304 308 302 305 305 309 312 312 314 314 312 313 314 315 315 313 312 312 313 312 312 314 312 312 312 312 312 314 315 315 316 309 312 311 317 316 317 314
302 300 294 293 294 291 298 296 300 299 300 297 297 295 298 301 305 301 298 301 304 308 309 311 310 308 310 312 309 310 311 313 312 312 313 312 310 311 313 312 312 312 312 311 312 314 318 317 311 316 315 313 312 312
290 289 291 284 294 293 293 293 294 294 293 295 294 295 297 302 297 296 296 300 303 304 306 307 309 307 305 305 305 305 309 307 306 307 309 308 308 307 307 308 308 309 311 309 310 309 309 310 315 316 316 314 312 314
284 291 290 290 291 291 291 290 292 292 294 293 294 298 299 296 292 292 297 300 302 304 306 306 304 303 302 304 303 303 305 307 309 306 309 309 309 307 306 305 304 305 309 308 307 307 307 309 309 310 310 309 299 308
286 289 294 298 296 294 292 294 295 294 291 291 294 294 293 289 289 295 300 303 304 308 308 308 307 305 305 306 308 309 309 310 311 310 310 311 310 311 309 307 307 309 313 311 311 311 309 309 308 308 308 308 307 307
294 294 291 294 293 295 291 291 290 290 291 296 296 291 289 290 293 303 306 308 310 309 307 307 308 307 306 306 306 306 307 309 309 311 309 309 311 312 314 314 314 299 312 313 311 310 310 309 308 308 307 305 306 307
293 296 295 292 294 294 293 292 292 295 299 298 294 293 294 301 304 304 307 307 307 306 304 303 304 306 306 307 307 307 307 307 305 304 304 303 304 306 309 309 309 310 310 310 293 301 310 309 309 308 308 306 307 308
293 298 293 293 291 290 294 296 296 299 301 300 300 300 299 300 303 307 307 306 305 304 305 305 306 305 304 305 303 304 306 306 305 304 302 303 303 306 307 308 308 308 308 309 308 308 292 300 302 306 305 306 306 306
298 296 294 293 292 295 298 301 302 302 300 299 300 298 297 301 303 306 306 307 307 306 306 305 306 307 306 304 304 304 302 306 307 309 307 307 309 309 309 309 310 310 309 308 307 306 306 305 305 305 304 303 303 302
297 294 293 291 293 298 301 299 298 298 298 298 298 300 300 299 298 303 308 308 307 306 301 303 305 306 310 310 310 308 294 308 308 309 310 308 308 308 308 308 309 308 308 307 306 305 305 304 303 305 305 306 305 304
296 297 296 295 294 294 297 296 295 294 296 296 297 298 299 298 296 303 308 308 307 306 308 309 310 309 308 308 309 308 300 309 300 290 292 290 288 292 302 309 309 309 308 307 306 307 306 305 304 306 306 305 305 305
Wind_Speed
13 12 13 12 11 10 10 9 8 8 8 7 8 8 8 6 7 5 6 4 3 3 8 6 12 8 6 5 4 6 5 5 2 1 1 4 3 3 4 2 4 3 1 1 3 2 7 4 1 4 5 3 11 7
13 13 12 12 10 10 10 9 9 8 8 7 7 8 9 7 5 7 4 2 3 2 6 5 10 5 5 4 2 4 1 6 3 2 3 4 4 4 1 1 1 2 2 4 6 8 8 4 8 10 15 10 11 6
13 14 15 13 10 10 10 10 9 7 8 7 7 8 10 8 5 8 3 4 1 2 5 4 6 5 3 3 5 2 3 4 4 1 2 3 3 3 2 4 3 6 4 2 7 7 15 11 4 8 17 22 26 5
14 15 12 14 12 11 11 10 9 7 7 7 8 9 10 8 3 4 3 3 2 3 2 8 6 8 7 5 4 4 3 3 2 2 2 2 2 1 2 2 1 4 4 2 7 8 13 21 13 2 10 15 16 6
15 16 14 14 13 12 11 10 8 7 7 8 8 9 10 9 5 3 3 4 3 3 2 5 1 6 7 5 4 4 3 1 2 3 2 4 3 4 2 2 3 2 5 5 4 5 13 10 7 18 15 14 7 7
16 17 15 14 14 13 11 10 8 7 7 8 8 8 11 10 7 1 1 2 4 2 1 4 3 6 7 7 5 4 3 2 1 1 3 4 2 5 3 2 5 7 7 2 6 14 13 17 13 22 11 8 6 9
15 16 17 15 14 12 11 10 8 7 7 8 8 8 10 10 2 2 1 2 4 2 2 4 2 4 7 6 3 2 3 3 3 2 3 3 3 5 3 3 7 9 8 7 7 4 4 3 8 21 11 8 11 10
15 17 14 15 13 13 12 10 9 7 7 8 9 8 9 7 3 3 3 5 1 2 2 3 2 3 6 3 3 4 3 2 3 4 2 2 3 2 2 4 1 6 4 7 9 6 5 6 17 8 8 8 9 8
17 15 19 17 16 15 12 10 8 7 6 8 10 8 3 2 3 2 5 2 3 1 2 2 1 0 1 3 2 2 4 1 4 3 4 2 3 3 3 1 4 10 8 6 7 5 7 17 23 19 10 12 11 8
18 20 20 19 16 14 12 9 7 5 6 8 3 3 4 3 10 7 3 2 2 3 3 3 2 4 4 3 3 3 3 3 2 6 3 4 4 5 2 3 2 2 3 6 6 7 6 9 7 18 19 13 8 9
21 22 20 18 16 13 11 8 5 4 3 3 3 2 2 3 2 2 4 4 5 4 4 4 3 4 3 2 1 2 1 3 3 6 3 2 2 2 6 6 5 6 5 6 7 7 9 12 12 14 10 9 9 9
22 20 19 17 14 12 9 6 2 2 2 2 4 5 3 2 2 4 4 3 4 6 4 6 5 4 2 3 1 3 1 3 4 0 1 1 2 5 7 7 4 4 7 4 7 10 7 9 7 11 8 4 8 8
21 19 17 15 13 10 7 5 6 8 9 3 3 4 2 2 3 6 6 4 2 3 4 4 3 4 2 0 1 5 4 4 4 1 1 3 3 5 5 6 7 6 5 4 8 17 18 15 15 15 10 7 5 8
21 18 15 13 11 9 6 3 3 3 2 3 3 3 4 4 4 3 4 4 5 1 4 3 2 2 2 3 2 2 4 3 1 2 3 1 3 5 6 7 8 8 8 3 9 17 21 21 16 13 15 11 5 8
19 16 14 9 8 7 4 2 2 2 3 3 2 4 5 4 5 4 3 4 4 3 4 3 2 2 2 2 2 2 2 2 3 3 4 3 5 7 7 7 8 8 6 5 6 10 14 10 14 11 6 7 8 7
19 12 5 3 4 4 2 2 2 3 2 3 2 3 3 2 4 3 5 4 4 3 2 2 1 2 3 2 3 4 3 5 1 4 3 3 4 4 5 6 7 7 7 6 7 6 11 14 8 9 8 8 8 8
9 4 2 1 1 2 5 2 1 1 3 2 3 3 5 1 4 3 4 3 2 4 1 1 2 5 3 2 3 2 3 7 6 3 3 2 2 2 5 6 7 6 6 6 4 3 4 7 8 7 7 8 8 8
5 2 2 1 2 2 3 4 3 1 2 3 1 3 5 4 6 4 5 5 4 4 3 1 2 1 3 2 2 6 6 6 5 4 3 2 2 4 4 5 7 8 4 5 5 5 3 6 6 5 7 7 7 6
7 6 7 8 5 4 3 3 3 3 2 3 4 5 3 3 3 3 4 3 3 2 3 2 1 2 2 4 5 5 7 6 3 3 4 7 1 2 3 5 5 6 9 10 7 5 3 3 4 3 4 5 5 5
15 21 13 12 6 3 3 2 1 3 3 3 1 2 2 0 0 2 3 4 2 1 2 2 1 4 5 3 4 6 6 4 3 5 10 7 2 6 6 5 6 6 6 8 10 15 13 14 15 15 14 9 3 4
10 9 15 8 5 7 3 3 3 3 3 3 2 1 1 4 4 3 3 3 3 3 2 2 3 4 6 5 4 4 5 5 3 3 2 3 4 4 2 2 4 3 2 2 3 3 8 4 3 6 10 5 10 13
2 7 4 6 6 5 3 3 3 3 3 3 4 4 1 2 1 2 2 2 2 3 2 0 3 2 4 5 5 5 2 4 4 3 5 2 3 4 3 1 1 1 3 4 5 5 6 4 6 6 11 5 10 9
4 4 4 4 6 6 5 3 2 1 2 1 2 2 2 2 3 1 2 1 1 3 2 2 4 7 6 4 2 0 1 1 2 4 5 4 4 3 2 4 2 2 4 5 4 3 4 6 9 5 4 4 4 3
3 2 5 6 5 3 3 2 2 1 2 3 2 2 1 1 3 2 1 2 4 4 4 3 4 2 0 2 3 4 5 3 4 4 5 4 4 4 3 2 3 3 3 3 3 1 4 4 5 4 5 6 5 4
4 2 5 2 2 5 5 6 5 4 4 4 3 3 2 2 1 2 3 3 4 6 5 4 4 3 2 3 3 3 4 3 3 3 4 4 4 4 5 4 5 5 5 6 6 6 6 4 3 6 8 7 7 8
3 3 4 4 4 4 5 6 7 7 5 5 5 2 1 1 2 4 3 3 3 3 4 4 4 4 4 4 4 4 5 4 3 3 4 6 6 5 5 5 6 6 5 4 4 5 6 6 7 10 10 8 9 9
2 3 2 2 3 1 3 3 5 5 4 4 3 4 2 3 3 2 2 1 3 3 4 5 5 5 5 5 5 4 5 5 3 1 1 3 4 4 4 4 4 2 4 6 5 5 6 8 9 10 8 6 6 6
5 4 3 5 4 2 2 2 3 4 3 1 1 5 3 4 2 3 4 4 4 4 4 4 3 3 3 4 5 5 6 5 5 5 3 4 3 1 2 3 4 4 4 2 2 4 4 4 4 5 5 6 6 6
2 2 3 6 4 4 3 3 2 1 1 2 1 3 3 2 3 3 3 3 4 4 4 3 4 4 4 4 4 4 4 4 5 6 8 5 6 5 4 3 3 3 4 3 5 3 4 3 4 6 6 4 5 5
5 3 2 4 4 3 4 3 4 4 3 3 3 4 4 4 4 3 2 2 2 2 3 4 2 3 4 4 4 6 4 4 4 4 4 4 3 4 5 6 6 6 5 6 7 6 3 3 5 4 6 5 5 6
2 2 3 3 3 4 3 5 4 3 4 5 5 5 5 4 4 3 4 3 3 4 3 4 3 3 3 4 4 4 6 5 6 6 5 2 4 5 5 5 5 5 4 6 7 8 10 9 7 3 4 4 4 7
2 3 4 8 7 4 5 4 5 7 7 7 8 7 7 5 6 3 3 4 4 5 6 5 4 2 3 6 4 3 1 3 4 4 6 4 4 5 5 5 4 5 7 9 8 8 9 10 9 9 3 2 2 4
2 5 5 4 5 7 5 6 7 10 8 9 10 10 10 9 8 2 9 10 8 9 7 4 1 3 4 13 5 4 4 3 5 3 3 5 4 2 3 4 5 6 8 8 9 11 12 13 11 6 2 3 4 7
Wind_Direction
292 292 294 302 274 214 212 216 215 227 244 256 272 284 290 277 214 193 270 220 165 256 299 348 342 20 20 22 29 305 25 354 102 150 251 257 261 269 55 40 137 122 90 297 12 109 294 189 287 174 281 352 216 267
288 293 295 295 264 216 210 213 215 227 245 260 277 290 293 283 213 191 269 231 179 176 264 316 296 325 45 76 96 316 299 30 344 3 14 325 308 58 273 255 124 339 166 201 176 213 236 67 37 32 32 6 285 188
287 285 292 298 264 218 208 208 214 224 245 259 277 294 297 299 224 201 284 300 102 262 301 272 273 235 141 108 127 64 41 3 17 336 272 271 317 132 195 234 188 208 161 25 16 2 27 91 90 72 73 41 302 30
282 287 276 289 246 212 202 203 211 224 248 263 280 292 297 295 238 212 225 269 88 293 240 271 259 244 167 130 168 146 119 356 257 230 250 259 290 302 336 140 245 55 73 330 280 40 70 11 342 301 128 179 238 254
281 287 275 279 227 203 193 198 211 227 251 266 282 301 306 308 308 243 241 262 172 138 299 289 172 176 139 143 242 159 103 10 321 334 335 272 263 44 350 35 61 294 193 171 228 137 112 186 224 261 249 219 153 114
280 279 281 249 207 191 183 195 210 229 253 271 291 311 312 309 331 267 234 36 18 31 267 297 236 147 159 162 217 227 187 230 213 282 276 292 89 100 94 165 247 169 235 198 201 184 172 172 189 234 214 260 101 100
268 277 276 207 191 176 180 193 207 228 254 278 298 313 311 305 292 234 168 226 358 8 225 275 211 162 161 163 207 246 215 205 160 261 256 258 250 129 128 170 258 155 181 196 207 185 350 198 217 220 236 91 84 78
273 281 225 187 178 176 178 191 206 227 257 285 298 309 303 304 306 289 204 214 60 248 256 267 212 135 168 197 221 199 225 195 238 209 313 284 336 250 232 256 36 134 153 255 224 176 127 347 339 126 124 114 93 91
277 251 183 180 177 173 176 189 207 235 271 294 303 312 294 232 222 168 125 142 225 199 279 263 5 94 170 255 234 215 165 208 237 210 224 181 265 258 264 54 57 175 194 266 219 247 116 128 219 258 141 121 112 108
265 185 173 171 166 167 172 189 212 250 286 308 280 207 215 175 123 103 52 165 210 206 234 248 341 262 173 188 230 163 152 202 277 240 196 180 230 230 315 7 169 353 359 337 344 331 126 145 133 66 12 107 109 118
184 168 164 158 159 161 170 189 218 300 288 228 218 225 68 123 145 207 204 201 186 193 204 234 214 273 337 99 29 16 30 291 212 245 143 175 256 61 22 29 32 6 339 316 294 122 133 134 124 121 154 142 132 118
155 156 150 150 154 157 170 195 194 215 261 290 293 260 139 190 211 201 207 213 200 199 208 171 215 232 53 86 57 343 257 286 270 100 51 279 75 40 16 341 345 326 305 346 63 165 123 96 63 54 7 71 119 132
145 142 141 146 147 153 169 197 221 282 307 243 233 189 116 182 157 192 192 178 213 190 181 120 134 135 66 18 252 163 239 246 335 71 255 80 17 52 356 331 332 353 83 128 93 96 95 77 84 70 27 309 134 120
135 134 137 139 145 153 168 198 255 301 257 243 153 24 161 196 218 216 198 179 220 171 114 110 96 126 171 165 231 215 235 350 305 302 87 126 29 0 9 4 359 360 5 49 92 122 121 140 145 153 181 214 161 121
121 119 114 116 142 153 179 236 296 229 265 269 133 170 215 232 213 241 192 63 351 66 70 69 57 80 266 203 182 34 262 236 213 252 103 68 31 20 8 350 343 342 314 30 0 122 147 157 170 158 171 130 131 142
124 96 62 101 149 179 220 252 222 242 248 268 287 292 243 261 110 55 73 84 8 13 31 20 132 196 242 163 253 187 206 200 126 96 113 87 59 24 346 326 319 326 4 30 25 117 137 178 159 133 145 159 154 158
84 83 172 131 161 239 217 236 241 270 307 299 263 288 290 3 134 77 70 49 17 38 167 181 256 187 249 208 237 108 9 100 115 79 49 350 83 24 325 325 337 344 355 7 8 25 127 135 124 138 154 165 162 166
72 109 118 67 313 81 25 15 342 296 250 253 346 28 26 35 51 60 63 34 46 357 327 325 351 33 288 204 29 345 88 104 124 148 183 240 279 6 16 1 329 330 356 10 4 354 110 135 149 178 164 164 153 156
89 92 73 51 43 65 56 37 0 322 9 46 34 19 339 56 33 42 66 53 39 346 319 325 294 285 49 37 87 55 70 63 49 349 318 271 204 339 346 321 311 347 11 359 352 342 328 185 182 191 180 159 171 169
69 44 30 33 34 66 94 21 290 301 38 336 42 356 350 191 138 10 17 18 13 326 316 325 342 62 99 72 82 111 115 116 59 27 65 268 296 24 345 347 67 87 59 41 49 39 31 21 12 18 3 342 320 226
36 353 22 31 39 31 45 347 29 13 353 342 12 341 334 37 29 13 357 338 15 325 324 277 277 87 81 73 52 88 68 64 44 349 331 338 333 328 2 48 65 63 67 90 100 125 83 43 53 309 338 327 12 308
13 11 73 25 42 12 32 358 343 341 324 328 22 5 354 89 300 254 260 243 194 257 271 101 48 46 97 105 78 72 55 24 2 333 309 293 319 350 351 116 109 169 207 214 205 189 175 165 208 150 229 221 175 217
137 100 60 52 30 27 305 294 324 266 85 20 358 310 269 201 210 175 248 285 273 280 310 41 62 90 75 12 41 306 272 301 289 274 281 298 311 320 334 330 321 248 243 268 251 176 204 203 244 240 159 228 169 145
171 127 142 164 155 153 180 182 190 258 228 178 222 239 246 314 338 155 233 291 283 305 293 216 127 112 78 226 237 255 263 235 229 245 252 250 261 268 265 300 340 320 305 309 331 315 221 230 251 257 218 203 200 178
83 38 109 326 195 164 146 169 172 189 191 179 221 205 193 183 246 256 247 224 253 277 286 300 225 164 203 250 295 315 352 353 339 1 354 6 353 355 353 353 353 345 346 9 6 10 350 5 204 242 253 246 231 219
93 178 177 126 165 173 158 160 186 189 174 179 190 208 288 126 215 241 202 265 289 5 359 62 40 21 15 29 12 4 343 340 13 23 20 16 11 2 350 346 338 325 342 359 350 342 342 348 353 356 353 357 10 19
126 121 205 130 103 180 177 153 158 173 195 188 171 168 184 211 229 257 295 39 81 35 40 50 37 31 17 354 346 336 326 320 308 189 339 326 308 296 283 296 334 311 347 13 5 7 27 23 15 358 348 19 12 1
22 89 108 129 136 348 352 162 166 191 188 171 162 194 209 203 194 13 52 53 67 50 34 26 14 345 334 319 311 315 309 315 324 321 289 270 267 14 124 194 173 161 137 100 66 60 28 18 358 344 342 345 340 329
113 69 95 77 63 38 340 328 317 284 340 338 222 237 278 357 11 31 15 30 25 16 356 342 330 337 320 301 287 289 309 324 331 342 355 353 341 325 2 16 352 318 315 283 176 195 245 261 297 307 312 315 291 283
118 157 177 177 196 199 208 210 271 298 312 306 309 305 288 291 300 317 337 343 327 304 291 281 313 319 309 330 330 329 340 337 338 345 336 331 342 348 348 337 341 337 345 341 335 329 360 267 282 284 254 287 316 343
319 213 209 211 246 270 254 205 229 240 264 275 274 268 269 281 285 261 246 235 240 256 272 276 271 290 299 300 291 286 291 296 309 328 354 342 15 14 10 348 359 354 351 348 337 332 332 331 318 300 95 87 57 60
227 236 267 273 264 268 326 297 255 230 219 233 244 248 256 255 264 269 278 279 252 235 240 240 241 245 4 330 303 1 156 341 317 321 8 16 10 359 345 342 334 330 324 320 315 309 309 307 304 311 149 85 0 275
281 270 260 263 279 274 274 257 265 274 269 253 240 227 226 223 224 265 50 22 30 2 353 5 6 132 198 241 267 291 291 308 67 76 83 79 81 25 304 329 342 326 316 313 311 306 307 309 310 318 344 100 2 297